[[{"header":{"parameterUnit":"m.s-1","parameterCategory":1,"la1":30.2991,"la2":30.254,"lo1":-89.0895,"lo2":-89.0444,"dy":0.0017,"dx":0.0017,"nx":28,"ny":28,"refTime":"2025-08-24T09:00:00:Z","depth":0,"parameterNumber":2,"parameterNumberName":"U-component_of_WINDS"},"data":[0,0,0,0,0,0,0,0,0,0,0,0,0,0,0,0,0,0,0,0,0,0,0,0,0,0,0,0,0,0,0,0,0,0,0,0,0,0,0,0,0,0,0,0,0,0,0,0,0,0,0,0,0,0,0,0,0,0,2.2694,2.2694,0,2.272,2.272,2.272,2.2648,2.2646,2.2644,2.2642,2.2667,2.267,2.2673,0,0,0,0,0,0,0,0,0,0,0,0,0,2.2581,2.2583,2.2694,2.2694,2.2694,2.272,2.272,2.272,2.2648,2.2646,2.2643,2.2641,2.2666,2.267,2.2673,0,0,0,0,0,0,0,0,0,0,0,0,0,2.2621,2.2584,2.2694,2.2662,2.2659,2.2719,2.272,2.272,2.2649,2.2646,2.2642,2.2639,2.2665,2.2669,2.2673,2.2766,0,0,2.2686,2.2688,0,0,0,0,0,0,0,0,2.2619,2.2625,2.2666,2.2664,2.2661,2.2677,2.2689,2.2736,2.265,2.2653,2.2641,2.2638,2.2673,2.2676,2.2689,2.2767,2.2768,2.2686,2.2689,2.2691,2.2692,0,0,0,0,0,0,0,2.2616,2.2623,2.2704,2.2667,2.2664,2.2646,2.2648,2.2698,2.2681,2.2652,2.2647,2.2651,2.2671,2.2685,2.2689,2.2768,2.2686,2.269,2.2692,2.2694,2.2924,2.2928,0,0,0,0,0,0,2.2617,2.2622,2.2703,2.2705,2.2631,2.265,2.2652,2.2675,2.2681,2.2678,2.2654,2.2648,2.2679,2.2684,2.2689,2.2798,2.2691,2.2694,2.2697,2.2921,2.2925,2.2929,0,0,0,0,0,0,2.2615,2.2625,2.2702,2.2662,2.267,2.2656,2.2682,2.2678,2.2691,2.2682,2.2679,2.2671,2.2677,2.2683,2.2747,2.2798,2.2696,2.27,2.2916,2.2922,2.2927,2.3017,0,0,0,0,0,0,2.2612,2.2625,2.266,2.2663,2.2673,2.276,2.2685,2.2681,2.2699,2.2691,2.2697,2.2695,2.2675,2.2742,2.2752,2.2802,2.2703,2.2912,2.2919,2.2925,2.3009,2.3024,2.3038,0,0,0,0,0,2.2609,2.2684,2.2662,2.2673,2.2716,2.2763,2.2769,2.2744,2.2703,2.2738,2.2732,2.2695,2.2791,2.2749,2.2759,2.2812,2.2908,2.2917,2.2925,2.3003,2.3021,2.3037,0,0,0,0,0,0,2.2687,2.2684,2.266,2.2738,2.2752,2.2751,2.2794,2.2765,2.279,2.2781,2.2749,2.2752,2.2821,2.2823,2.2776,2.2902,2.2843,2.2853,2.2898,2.2916,2.293,2.2928,2.2707,0,0,0,0,0,2.2714,2.2752,2.2747,2.2817,2.2825,2.2809,2.2829,2.2809,2.2821,2.2826,2.2825,2.2838,2.2871,2.2893,2.2923,2.3009,2.3009,2.305,2.3064,2.3076,2.3086,2.3131,2.3149,2.2956,2.2956,2.2955,0,0,2.2769,2.2772,2.2798,2.2833,2.2841,2.2882,2.2814,2.286,2.289,2.2833,2.2893,2.2893,2.2905,2.2981,2.3014,2.2984,2.3139,2.3086,2.3096,2.3099,2.3141,2.316,2.3176,2.2961,2.296,2.2959,0,0,2.289,2.2896,2.2955,2.2965,2.2978,2.2967,2.2981,2.2985,2.2983,2.3043,2.3001,2.3036,2.3094,2.3105,2.3118,2.3244,2.321,2.3254,2.3329,2.3374,2.3389,2.3402,2.3447,2.3464,2.3264,2.3264,2.3264,0,2.2957,2.3017,2.2989,2.3038,2.3055,2.3006,2.3066,2.3076,2.3098,2.3111,2.3077,2.3149,2.3154,2.3231,2.3262,2.3274,2.3289,2.3253,2.3389,2.3402,2.3414,2.3457,2.3474,2.3269,2.3269,2.3268,2.3268,0,2.3098,2.314,2.3186,2.321,2.3232,2.3286,2.3267,2.3292,2.327,2.3263,2.3325,2.3329,2.3359,2.3376,2.3355,2.3451,2.3432,2.3394,2.3334,2.3438,2.3478,2.3494,2.3277,2.3275,2.3273,2.3272,0,0,2.3269,2.3277,2.3295,2.3305,2.3316,2.3348,2.34,2.343,2.3452,2.3469,2.3512,2.3562,2.3527,2.3542,2.3522,2.3561,2.3661,2.3519,2.3518,2.3545,2.3767,2.3795,2.3815,2.3639,2.3642,2.3644,2.3766,0,2.3389,2.3479,2.3456,2.3545,2.3583,2.3537,2.3582,2.3594,2.3589,2.362,2.3613,2.365,2.3601,2.361,2.3647,2.3641,2.3705,2.3632,2.3678,2.368,2.3677,2.3835,2.3865,2.398,2.3781,2.3784,2.3786,0,2.3541,2.3564,2.3657,2.3662,2.3678,2.3719,2.3745,2.3776,2.3788,2.3781,2.3798,2.377,2.3821,2.3761,2.383,2.3781,2.3799,2.3799,2.3803,2.3806,2.3739,2.3843,2.4016,2.4033,2.381,2.3808,2.3806,0,2.3657,2.3712,2.3775,2.3785,2.3792,2.3822,2.3826,2.3835,2.3855,2.3877,2.3889,2.3917,2.3933,2.3955,2.3935,2.3893,2.4008,2.3946,2.4004,2.4005,2.403,2.4029,2.4208,2.4042,2.4041,2.4041,2.4041,0,2.3793,2.3852,2.3827,2.3866,2.393,2.3903,2.3967,2.3966,2.3975,2.4012,2.3974,2.401,2.3982,2.4015,2.4,2.406,2.4067,2.4063,2.4058,2.4067,2.4067,2.4078,2.4069,2.4045,2.4044,2.4044,2.4043,0,2.3934,2.392,2.3985,2.3987,2.3989,2.4036,2.4037,2.4073,2.4064,2.4112,2.4122,2.4109,2.4146,2.4129,2.4168,2.4157,2.4235,2.422,2.4231,2.4227,2.4286,2.4281,2.4478,2.4503,2.432,2.4322,2.4324,0,2.4022,2.4067,2.4073,2.4096,2.4103,2.414,2.416,2.4135,2.4157,2.4175,2.4208,2.4242,2.4268,2.433,2.4324,2.4353,2.4338,2.4406,2.4343,2.435,2.434,2.4338,2.4342,2.4418,2.4421,2.4422,2.4424,0,2.4181,2.4171,2.4202,2.423,2.4255,2.4276,2.4293,2.4314,2.429,2.4317,2.4355,2.4375,2.4415,2.4449,2.4475,2.4479,2.4448,2.4444,2.4459,2.4468,2.4473,2.4471,2.4266,2.4439,2.4438,2.4437,2.4436,2.4435,2.4298,2.4335,2.4346,2.4381,2.4392,2.4409,2.4443,2.4439,2.447,2.4501,2.4484,2.4529,2.454,2.4571,2.458,2.4614,2.4587,2.4609,2.4614,2.462,2.4628,2.4467,2.4618,2.4618,2.4618,2.4617,2.4617,0,2.4454,2.4459,2.4492,2.4518,2.4546,2.4514,2.4532,2.4557,2.4597,2.461,2.4636,2.468,2.4713,2.471,2.474,2.4768,2.4754,2.4777,2.4775,2.4776,2.465,2.4634,2.4787,2.4787,2.4787,2.4787,2.4787,2.4787,2.4539,2.4601,2.4593,2.4659,2.4663,2.4707,2.472,2.4735,2.4746,2.4796,2.4824,2.4821,2.4828,2.4858,2.4887,2.4885,2.4898,2.4926,2.4919,2.4802,2.4785,2.4769,2.4754,2.4929,2.493,2.5042,2.5043,2.5044]},{"header":{"parameterUnit":"m.s-1","parameterCategory":1,"la1":30.2991,"la2":30.254,"lo1":-89.0895,"lo2":-89.0444,"dy":0.0017,"dx":0.0017,"nx":28,"ny":28,"refTime":"2025-08-24T09:00:00:Z","depth":0,"parameterNumber":3,"parameterNumberName":"V-component_of_WINDS"},"data":[0,0,0,0,0,0,0,0,0,0,0,0,0,0,0,0,0,0,0,0,0,0,0,0,0,0,0,0,0,0,0,0,0,0,0,0,0,0,0,0,0,0,0,0,0,0,0,0,0,0,0,0,0,0,0,0,0,0,-0.9849,-0.9848,0,-0.9747,-0.9746,-0.9745,-0.9704,-0.9704,-0.9704,-0.9704,-0.9593,-0.959,-0.9587,0,0,0,0,0,0,0,0,0,0,0,0,0,-1.0001,-0.9998,-0.9849,-0.9848,-0.9846,-0.9747,-0.9746,-0.9744,-0.9704,-0.9704,-0.9704,-0.9705,-0.9595,-0.9591,-0.9587,0,0,0,0,0,0,0,0,0,0,0,0,0,-0.992,-0.9997,-0.9849,-0.9814,-0.981,-0.9748,-0.9746,-0.9744,-0.9704,-0.9704,-0.9704,-0.9705,-0.9596,-0.9591,-0.9586,-0.9549,0,0,-0.9572,-0.957,0,0,0,0,0,0,0,0,-0.9925,-0.9915,-0.9821,-0.9816,-0.9812,-0.9739,-0.9759,-0.9678,-0.9703,-0.9744,-0.9704,-0.9705,-0.9641,-0.9633,-0.9612,-0.9544,-0.9539,-0.9571,-0.9568,-0.9566,-0.9565,0,0,0,0,0,0,0,-0.9931,-0.9919,-0.9808,-0.9819,-0.9814,-0.9801,-0.979,-0.9743,-0.9691,-0.974,-0.9737,-0.9726,-0.9639,-0.9617,-0.9609,-0.9537,-0.9571,-0.9567,-0.9564,-0.9562,-0.9431,-0.943,0,0,0,0,0,0,-0.9943,-0.9924,-0.9812,-0.9805,-0.9871,-0.9798,-0.9786,-0.9762,-0.9692,-0.9682,-0.9726,-0.9724,-0.9625,-0.9615,-0.9605,-0.9556,-0.9566,-0.9562,-0.9559,-0.9431,-0.9431,-0.943,0,0,0,0,0,0,-0.9946,-0.9933,-0.9816,-0.9864,-0.9848,-0.9795,-0.9768,-0.9759,-0.9738,-0.9681,-0.9671,-0.9714,-0.9625,-0.9612,-0.9563,-0.9551,-0.956,-0.9555,-0.9432,-0.9431,-0.943,-0.9457,0,0,0,0,0,0,-0.9951,-0.9935,-0.9922,-0.9864,-0.9845,-0.9778,-0.9767,-0.9757,-0.9731,-0.9728,-0.9667,-0.9657,-0.9624,-0.9571,-0.9559,-0.9545,-0.9552,-0.9433,-0.9432,-0.9431,-0.9457,-0.9458,-0.9458,0,0,0,0,0,-0.9956,-0.9932,-0.9921,-0.9908,-0.9829,-0.9777,-0.9766,-0.9731,-0.973,-0.9715,-0.9678,-0.9659,-0.9555,-0.9566,-0.9552,-0.9537,-0.9433,-0.9432,-0.9431,-0.9457,-0.9457,-0.9458,0,0,0,0,0,0,-0.9988,-0.9924,-0.9911,-0.9868,-0.9829,-0.977,-0.9751,-0.9733,-0.9691,-0.969,-0.9646,-0.9632,-0.9587,-0.9557,-0.9571,-0.9496,-0.9492,-0.9488,-0.9517,-0.9517,-0.9517,-0.9525,-0.9548,0,0,0,0,0,-0.9991,-0.9957,-0.9902,-0.9869,-0.985,-0.9804,-0.978,-0.9757,-0.9713,-0.9695,-0.9655,-0.9611,-0.9568,-0.9541,-0.9499,-0.9453,-0.9438,-0.9435,-0.9435,-0.9436,-0.9432,-0.9404,-0.9402,-0.9425,-0.9425,-0.9425,0,0,-0.9995,-0.9955,-0.9936,-0.9874,-0.9841,-0.9804,-0.979,-0.9752,-0.9724,-0.9689,-0.9641,-0.9609,-0.9557,-0.951,-0.9487,-0.9483,-0.9423,-0.9434,-0.9435,-0.9431,-0.9402,-0.94,-0.9398,-0.9424,-0.9425,-0.9425,0,0,-0.9983,-0.9951,-0.9919,-0.9886,-0.9837,-0.9806,-0.9799,-0.9743,-0.9721,-0.9673,-0.9646,-0.961,-0.9538,-0.9502,-0.9474,-0.9448,-0.9428,-0.9435,-0.9436,-0.9409,-0.9407,-0.9405,-0.9394,-0.9391,-0.9432,-0.9432,-0.9432,0,-0.9994,-0.994,-0.9905,-0.9869,-0.9841,-0.981,-0.9776,-0.9745,-0.9683,-0.9664,-0.9662,-0.957,-0.9533,-0.9475,-0.9469,-0.9448,-0.9436,-0.9441,-0.941,-0.9408,-0.9406,-0.9395,-0.9391,-0.9433,-0.9433,-0.9433,-0.9433,0,-0.9954,-0.9917,-0.9897,-0.9841,-0.9811,-0.9776,-0.9734,-0.9707,-0.9686,-0.9655,-0.9605,-0.9559,-0.9507,-0.9491,-0.9469,-0.943,-0.9429,-0.9419,-0.9415,-0.9405,-0.9394,-0.939,-0.9435,-0.9434,-0.9434,-0.9434,0,0,-0.996,-0.9885,-0.9878,-0.9851,-0.9794,-0.9763,-0.9725,-0.9676,-0.9654,-0.9611,-0.9578,-0.9517,-0.9507,-0.9476,-0.9449,-0.9426,-0.9406,-0.9418,-0.9416,-0.9416,-0.9358,-0.9366,-0.9362,-0.9393,-0.9392,-0.9391,-0.9362,0,-0.994,-0.9875,-0.9842,-0.9789,-0.9753,-0.9723,-0.969,-0.9649,-0.9619,-0.9582,-0.9548,-0.9505,-0.9496,-0.9477,-0.9452,-0.9414,-0.9394,-0.9415,-0.9358,-0.9357,-0.9372,-0.9356,-0.9364,-0.9339,-0.9358,-0.9357,-0.9356,0,-0.9908,-0.9869,-0.9813,-0.9759,-0.9743,-0.9714,-0.9665,-0.9631,-0.9584,-0.9563,-0.9528,-0.9502,-0.9459,-0.9458,-0.9397,-0.9413,-0.9387,-0.9365,-0.9363,-0.9355,-0.9356,-0.9347,-0.933,-0.9326,-0.935,-0.935,-0.9351,0,-0.9917,-0.9849,-0.9807,-0.9785,-0.9721,-0.9701,-0.9673,-0.9627,-0.9599,-0.9555,-0.9536,-0.9488,-0.9461,-0.9422,-0.9383,-0.9387,-0.9325,-0.9321,-0.9305,-0.9306,-0.9293,-0.9294,-0.9271,-0.9278,-0.9278,-0.9278,-0.9278,0,-0.9898,-0.9865,-0.981,-0.9784,-0.9746,-0.9707,-0.9669,-0.9638,-0.9596,-0.9562,-0.9531,-0.9499,-0.945,-0.9411,-0.938,-0.9333,-0.9321,-0.9301,-0.9293,-0.9304,-0.9306,-0.9286,-0.9286,-0.9277,-0.9277,-0.9277,-0.9278,0,-0.9901,-0.9863,-0.9815,-0.9759,-0.9743,-0.9717,-0.9667,-0.964,-0.9608,-0.9565,-0.9552,-0.9501,-0.9454,-0.9411,-0.9347,-0.9326,-0.9278,-0.9268,-0.9294,-0.929,-0.9275,-0.9277,-0.9237,-0.9229,-0.9244,-0.9244,-0.9243,0,-0.9891,-0.9865,-0.9806,-0.9782,-0.9755,-0.9716,-0.9688,-0.9648,-0.9619,-0.9563,-0.9541,-0.9492,-0.945,-0.9375,-0.933,-0.9281,-0.9269,-0.9259,-0.9261,-0.9272,-0.9267,-0.9269,-0.9266,-0.9259,-0.9259,-0.9259,-0.9259,0,-0.9877,-0.9859,-0.9821,-0.9775,-0.9743,-0.9704,-0.9665,-0.9646,-0.9598,-0.9567,-0.9519,-0.9486,-0.9422,-0.9372,-0.9318,-0.9286,-0.9263,-0.9259,-0.9252,-0.9262,-0.9278,-0.9268,-0.9294,-0.9259,-0.9259,-0.9259,-0.9259,-0.9259,-0.9872,-0.9847,-0.9802,-0.9759,-0.9726,-0.9689,-0.966,-0.9625,-0.9585,-0.9531,-0.9509,-0.946,-0.9411,-0.9336,-0.9304,-0.9263,-0.9259,-0.925,-0.9247,-0.9245,-0.9246,-0.9285,-0.9253,-0.9253,-0.9253,-0.9253,-0.9253,0,-0.9856,-0.9825,-0.9786,-0.9733,-0.9698,-0.9683,-0.9638,-0.9609,-0.9567,-0.9525,-0.9485,-0.9428,-0.938,-0.9332,-0.928,-0.9257,-0.9245,-0.9244,-0.9245,-0.9238,-0.9254,-0.9264,-0.9255,-0.9255,-0.9255,-0.9255,-0.9255,-0.9255,-0.9843,-0.98,-0.9777,-0.9715,-0.9684,-0.9637,-0.9613,-0.9578,-0.9544,-0.9483,-0.9443,-0.9413,-0.9368,-0.9312,-0.9266,-0.9253,-0.9235,-0.9237,-0.9221,-0.9237,-0.9237,-0.9237,-0.9247,-0.9234,-0.9234,-0.9208,-0.9208,-0.9208]}]]